Barbara Foss — WYL4318 — position and weather

sailwx.info

Track history (hours):
 
Tides and Currents Weather Stations Pressure Air Temp Water Temp Dewpoint Dewpoint Depression Visibility Wind Speed Wind Dir Waves Ship Positions

Barbara Foss

Owner: Foss International, Inc, SEATTLE, WA. More information available from US FCC via Universal Licensing System and Coast Guard Vessel Documentation Center.

Last reported at 2016-Sep-02 05:32 UTC. Time now 2016-Sep-28 10:17 UTC.
Position N 31°27' W 120°50'.
Warning: this ship's position is 26 days out of date.

Length 40 m; draft 5 m.

Type: Towing. MMSI: 366932130.

Date/timePositionNaut miles runAvg speedWind from/ knotsBaromVisibWave heightAir tempDewpointWater temp
2016-Sep-02 05:32N 31°27' W 120°50'12 8.2
2016-Sep-02 04:06N 31°31' W 120°37'4 7.9
2016-Sep-02 03:33N 31°32' W 120°32'51 8.3
2016-Sep-01 21:25N 31°51' W 119°37'17 8.9
2016-Sep-01 19:33N 31°60' W 119°20'13 9.0
2016-Sep-01 18:09N 32°06' W 119°07'5 9.2
2016-Sep-01 17:33N 32°09' W 119°02'9 9.1
2016-Sep-01 16:33N 32°14' W 118°53'9 8.8
2016-Sep-01 15:33N 32°19' W 118°44'8 7.8
2016-Sep-01 14:33N 32°22' W 118°36'8 8.4
2016-Sep-01 13:33N 32°27' W 118°27'9 9.1
2016-Sep-01 12:33N 32°31' W 118°18'10 9.0
2016-Sep-01 11:25N 32°36' W 118°07'8 8.6
2016-Sep-01 10:32N 32°41' W 118°01'9 8.9
2016-Sep-01 09:33N 32°50' W 118°02'9 9.2
2016-Sep-01 08:33N 32°59' W 118°04'9 9.0
2016-Sep-01 07:33N 33°08' W 118°05'9 8.8
2016-Sep-01 06:32N 33°17' W 118°06'9 8.8
2016-Sep-01 05:33N 33°25' W 118°09'9 9.2
2016-Sep-01 04:33N 33°34' W 118°12'8 7.8
2016-Sep-01 03:33N 33°42' W 118°11'4 4.2
2016-Sep-01 02:33N 33°45' W 118°13'1 0.8
2016-Sep-01 01:23N 33°46' W 118°13'0 0.0
2016-Sep-01 00:17N 33°46' W 118°13'0 0.0
2016-Aug-31 22:29N 33°46' W 118°13'0 0.0
2016-Aug-31 21:32N 33°46' W 118°13'0 0.0
2016-Aug-31 20:26N 33°46' W 118°13'0 0.0
2016-Aug-31 19:26N 33°46' W 118°13'0 0.0
2016-Aug-31 05:32N 33°46' W 118°13'0 0.0
2016-Aug-31 01:32N 33°46' W 118°13'0 0.0
2016-Aug-31 00:26N 33°46' W 118°13'0 0.0
2016-Aug-30 23:32N 33°46' W 118°13'0 0.0
2016-Aug-30 22:32N 33°46' W 118°13'0 0.0
2016-Aug-30 21:32N 33°46' W 118°13'0 0.0
2016-Aug-30 11:20N 33°46' W 118°13'0 0.0
2016-Aug-30 10:32N 33°46' W 118°13'0 0.0
2016-Aug-30 09:32N 33°46' W 118°13'0 0.0
2016-Aug-30 08:29N 33°46' W 118°13'0 0.0
2016-Aug-30 01:27N 33°46' W 118°13'0 0.0
2016-Aug-30 00:33N 33°46' W 118°13'4 4.1
2016-Aug-29 23:33N 33°42' W 118°11'10 9.9
2016-Aug-29 22:33N 33°36' W 118°19'1412.2
2016-Aug-29 21:23N 33°42' W 118°35'15911.5
2016-Aug-29 07:33N 34°52' W 121°27'1311.8
2016-Aug-29 06:28N 35°03' W 121°35'1211.7
2016-Aug-29 05:26N 35°13' W 121°43'1112.1
2016-Aug-29 04:33N 35°22' W 121°51'1212.0
2016-Aug-29 03:33N 35°32' W 121°59'1411.9
2016-Aug-29 02:21N 35°44' W 122°09'911.9
2016-Aug-29 01:33N 35°52' W 122°15'1211.9
2016-Aug-29 00:33N 36°02' W 122°23'1212.0
2016-Aug-28 23:33N 36°12' W 122°31'1312.1
2016-Aug-28 22:28N 36°23' W 122°40'1112.2
2016-Aug-28 21:33N 36°32' W 122°48'1211.8
2016-Aug-28 20:33N 36°42' W 122°56'1111.0
2016-Aug-28 19:33N 36°51' W 123°03'9 9.2
2016-Aug-28 18:33N 36°59' W 123°09'9 8.8
2016-Aug-28 17:33N 37°07' W 123°15'9 8.8
2016-Aug-28 16:29N 37°14' W 123°22'21 8.6
2016-Aug-28 14:05N 37°32' W 123°36'4 8.5
2016-Aug-28 13:33N 37°35' W 123°39'1111.1
2016-Aug-28 12:33N 37°45' W 123°47'1211.9
2016-Aug-28 11:33N 37°55' W 123°55'1212.0
2016-Aug-28 10:33N 38°05' W 124°03'1512.2
2016-Aug-28 09:20N 38°17' W 124°14'34611.6
2016-Aug-27 03:31N 43°60' W 125°16'1212.8
2016-Aug-27 02:33N 44°12' W 125°17'1612.1
2016-Aug-27 01:12N 44°29' W 125°16'812.0
2016-Aug-27 00:33N 44°36' W 125°16'1212.2
2016-Aug-26 23:33N 44°48' W 125°17'1010.1
2016-Aug-26 22:33N 44°58' W 125°16'9 8.9
2016-Aug-26 21:33N 45°07' W 125°17'9 8.6
2016-Aug-26 20:33N 45°16' W 125°17'9 9.1
2016-Aug-26 19:33N 45°25' W 125°17'9 9.3
2016-Aug-26 18:33N 45°34' W 125°17'9 9.1
2016-Aug-26 17:33N 45°43' W 125°17'9 9.1
2016-Aug-26 16:33N 45°53' W 125°17'10 9.7
2016-Aug-26 15:33N 46°02' W 125°17'9 9.4
2016-Aug-26 14:33N 46°12' W 125°17'1211.8
2016-Aug-26 13:33N 46°23' W 125°17'1212.2
2016-Aug-26 12:33N 46°36' W 125°17'1212.4
2016-Aug-26 11:33N 46°48' W 125°17'1212.2
2016-Aug-26 10:33N 47°00' W 125°17'1212.2
2016-Aug-26 09:33N 47°12' W 125°17'1212.5
2016-Aug-26 08:33N 47°25' W 125°17'1312.9
2016-Aug-26 07:33N 47°38' W 125°17'4912.2
2016-Aug-26 03:30N 48°26' W 125°07'1010.5
2016-Aug-26 02:31N 48°28' W 124°51'1111.5
2016-Aug-26 01:33N 48°25' W 124°35'1312.6
2016-Aug-26 00:33N 48°20' W 124°18'1612.6
2016-Aug-25 23:15N 48°13' W 123°56'912.5
2016-Aug-25 22:33N 48°13' W 123°42'1313.0
2016-Aug-25 21:32N 48°14' W 123°23'1313.3
2016-Aug-25 20:33N 48°13' W 123°03'1512.2
2016-Aug-25 19:16N 48°08' W 122°41'911.3
2016-Aug-25 18:29N 47°60' W 122°36'1011.1
2016-Aug-25 17:33N 47°51' W 122°27'1211.6
2016-Aug-25 16:33N 47°39' W 122°27'3 3.0
2016-Aug-25 15:32N 47°38' W 122°23'0 0.0
2016-Aug-25 14:33N 47°38' W 122°23'0 0.0
2016-Aug-25 13:34N 47°38' W 122°23'0 0.0
2016-Aug-25 12:33N 47°38' W 122°23'0 0.0
2016-Aug-25 11:33N 47°38' W 122°23'0 0.0
2016-Aug-25 10:33N 47°38' W 122°23'0 0.0
2016-Aug-25 09:33N 47°38' W 122°23'0 0.0
2016-Aug-25 08:33N 47°38' W 122°23'0 0.0
2016-Aug-25 07:33N 47°38' W 122°23'0 0.0
2016-Aug-25 06:33N 47°38' W 122°23'0 0.0
2016-Aug-25 04:33N 47°38' W 122°23'0 0.0
2016-Aug-25 03:33N 47°38' W 122°23'0 0.0
2016-Aug-25 02:34N 47°38' W 122°23'0 0.0
2016-Aug-25 01:33N 47°38' W 122°23'0 0.0
2016-Aug-25 00:33N 47°38' W 122°23'0 0.0
2016-Aug-24 23:33N 47°38' W 122°23'0 0.0
2016-Aug-24 22:33N 47°38' W 122°23'0 0.0
2016-Aug-24 21:33N 47°38' W 122°23'0 0.0
2016-Aug-24 20:33N 47°38' W 122°23'0 0.0
2016-Aug-24 19:33N 47°38' W 122°23'0 0.0
2016-Aug-24 18:33N 47°38' W 122°23'0 0.0
2016-Aug-24 17:33N 47°38' W 122°23'0 0.0
2016-Aug-24 16:33N 47°38' W 122°23'0 0.0
2016-Aug-24 15:33N 47°38' W 122°23'0 0.0
2016-Aug-24 14:33N 47°38' W 122°23'0 0.0
2016-Aug-24 13:30N 47°38' W 122°23'0 0.0
2016-Aug-24 12:33N 47°38' W 122°23'0 0.0
2016-Aug-24 11:33N 47°38' W 122°23'0 0.0
2016-Aug-24 10:33N 47°38' W 122°23'0 0.0
2016-Aug-24 09:33N 47°38' W 122°23'0 0.0
2016-Aug-24 08:33N 47°38' W 122°23'0 0.0
2016-Aug-24 07:33N 47°38' W 122°23'0 0.0
2016-Aug-24 06:33N 47°38' W 122°23'0 0.0
2016-Aug-24 04:33N 47°38' W 122°23'0 0.0
2016-Aug-24 03:33N 47°38' W 122°23'0 0.0
2016-Aug-24 02:33N 47°38' W 122°23'0 0.0
2016-Aug-24 01:33N 47°38' W 122°23'0 0.0
2016-Aug-24 00:33N 47°38' W 122°23'0 0.0
2016-Aug-23 23:33N 47°38' W 122°23'0 0.0
2016-Aug-23 22:33N 47°38' W 122°23'0 0.0
2016-Aug-23 21:33N 47°38' W 122°23'0 0.0
2016-Aug-23 20:33N 47°38' W 122°23'0 0.0
2016-Aug-23 19:33N 47°38' W 122°23'0 0.0
2016-Aug-23 18:30N 47°38' W 122°23'0 0.0
2016-Aug-23 17:33N 47°38' W 122°23'0 0.0
2016-Aug-23 16:33N 47°38' W 122°23'0 0.0
2016-Aug-23 15:33N 47°38' W 122°23'0 0.0
2016-Aug-23 14:33N 47°38' W 122°23'0 0.0
2016-Aug-23 13:33N 47°38' W 122°23'0 0.0
2016-Aug-23 12:33N 47°38' W 122°23'0 0.0
2016-Aug-23 11:33N 47°38' W 122°23'0 0.0
2016-Aug-23 10:33N 47°38' W 122°23'0 0.0
2016-Aug-23 09:33N 47°38' W 122°23'0 0.0
2016-Aug-23 08:33N 47°38' W 122°23'0 0.0
2016-Aug-23 07:33N 47°38' W 122°23'0 0.0
2016-Aug-23 06:33N 47°38' W 122°23'0 0.0
2016-Aug-23 05:33N 47°38' W 122°23'  
Track history (hours):
 
Tides and Currents Weather Stations Pressure Air Temp Water Temp Dewpoint Dewpoint Depression Visibility Wind Speed Wind Dir Waves Ship Positions

Barbara Foss

Owner: Foss International, Inc, SEATTLE, WA. More information available from US FCC via Universal Licensing System and Coast Guard Vessel Documentation Center.

Last reported at 2016-Sep-02 05:32 UTC. Time now 2016-Sep-28 10:17 UTC.
Position N 31°27' W 120°50'.
Warning: this ship's position is 26 days out of date.

Length 40 m; draft 5 m.

Type: Towing. MMSI: 366932130.

Date/timePositionNaut miles runAvg speedWind from/ knotsBaromVisibWave heightAir tempDewpointWater temp
2016-Sep-02 05:32N 31°27' W 120°50'12 8.2
2016-Sep-02 04:06N 31°31' W 120°37'4 7.9
2016-Sep-02 03:33N 31°32' W 120°32'51 8.3
2016-Sep-01 21:25N 31°51' W 119°37'17 8.9
2016-Sep-01 19:33N 31°60' W 119°20'13 9.0
2016-Sep-01 18:09N 32°06' W 119°07'5 9.2
2016-Sep-01 17:33N 32°09' W 119°02'9 9.1
2016-Sep-01 16:33N 32°14' W 118°53'9 8.8
2016-Sep-01 15:33N 32°19' W 118°44'8 7.8
2016-Sep-01 14:33N 32°22' W 118°36'8 8.4
2016-Sep-01 13:33N 32°27' W 118°27'9 9.1
2016-Sep-01 12:33N 32°31' W 118°18'10 9.0
2016-Sep-01 11:25N 32°36' W 118°07'8 8.6
2016-Sep-01 10:32N 32°41' W 118°01'9 8.9
2016-Sep-01 09:33N 32°50' W 118°02'9 9.2
2016-Sep-01 08:33N 32°59' W 118°04'9 9.0
2016-Sep-01 07:33N 33°08' W 118°05'9 8.8
2016-Sep-01 06:32N 33°17' W 118°06'9 8.8
2016-Sep-01 05:33N 33°25' W 118°09'9 9.2
2016-Sep-01 04:33N 33°34' W 118°12'8 7.8
2016-Sep-01 03:33N 33°42' W 118°11'4 4.2
2016-Sep-01 02:33N 33°45' W 118°13'1 0.8
2016-Sep-01 01:23N 33°46' W 118°13'0 0.0
2016-Sep-01 00:17N 33°46' W 118°13'0 0.0
2016-Aug-31 22:29N 33°46' W 118°13'0 0.0
2016-Aug-31 21:32N 33°46' W 118°13'0 0.0
2016-Aug-31 20:26N 33°46' W 118°13'0 0.0
2016-Aug-31 19:26N 33°46' W 118°13'0 0.0
2016-Aug-31 05:32N 33°46' W 118°13'0 0.0
2016-Aug-31 01:32N 33°46' W 118°13'0 0.0
2016-Aug-31 00:26N 33°46' W 118°13'0 0.0
2016-Aug-30 23:32N 33°46' W 118°13'0 0.0
2016-Aug-30 22:32N 33°46' W 118°13'0 0.0
2016-Aug-30 21:32N 33°46' W 118°13'0 0.0
2016-Aug-30 11:20N 33°46' W 118°13'0 0.0
2016-Aug-30 10:32N 33°46' W 118°13'0 0.0
2016-Aug-30 09:32N 33°46' W 118°13'0 0.0
2016-Aug-30 08:29N 33°46' W 118°13'0 0.0
2016-Aug-30 01:27N 33°46' W 118°13'0 0.0
2016-Aug-30 00:33N 33°46' W 118°13'4 4.1
2016-Aug-29 23:33N 33°42' W 118°11'10 9.9
2016-Aug-29 22:33N 33°36' W 118°19'1412.2
2016-Aug-29 21:23N 33°42' W 118°35'15911.5
2016-Aug-29 07:33N 34°52' W 121°27'1311.8
2016-Aug-29 06:28N 35°03' W 121°35'1211.7
2016-Aug-29 05:26N 35°13' W 121°43'1112.1
2016-Aug-29 04:33N 35°22' W 121°51'1212.0
2016-Aug-29 03:33N 35°32' W 121°59'1411.9
2016-Aug-29 02:21N 35°44' W 122°09'911.9
2016-Aug-29 01:33N 35°52' W 122°15'1211.9
2016-Aug-29 00:33N 36°02' W 122°23'1212.0
2016-Aug-28 23:33N 36°12' W 122°31'1312.1
2016-Aug-28 22:28N 36°23' W 122°40'1112.2
2016-Aug-28 21:33N 36°32' W 122°48'1211.8
2016-Aug-28 20:33N 36°42' W 122°56'1111.0
2016-Aug-28 19:33N 36°51' W 123°03'9 9.2
2016-Aug-28 18:33N 36°59' W 123°09'9 8.8
2016-Aug-28 17:33N 37°07' W 123°15'9 8.8
2016-Aug-28 16:29N 37°14' W 123°22'21 8.6
2016-Aug-28 14:05N 37°32' W 123°36'4 8.5
2016-Aug-28 13:33N 37°35' W 123°39'1111.1
2016-Aug-28 12:33N 37°45' W 123°47'1211.9
2016-Aug-28 11:33N 37°55' W 123°55'1212.0
2016-Aug-28 10:33N 38°05' W 124°03'1512.2
2016-Aug-28 09:20N 38°17' W 124°14'34611.6
2016-Aug-27 03:31N 43°60' W 125°16'1212.8
2016-Aug-27 02:33N 44°12' W 125°17'1612.1
2016-Aug-27 01:12N 44°29' W 125°16'812.0
2016-Aug-27 00:33N 44°36' W 125°16'1212.2
2016-Aug-26 23:33N 44°48' W 125°17'1010.1
2016-Aug-26 22:33N 44°58' W 125°16'9 8.9
2016-Aug-26 21:33N 45°07' W 125°17'9 8.6
2016-Aug-26 20:33N 45°16' W 125°17'9 9.1
2016-Aug-26 19:33N 45°25' W 125°17'9 9.3
2016-Aug-26 18:33N 45°34' W 125°17'9 9.1
2016-Aug-26 17:33N 45°43' W 125°17'9 9.1
2016-Aug-26 16:33N 45°53' W 125°17'10 9.7
2016-Aug-26 15:33N 46°02' W 125°17'9 9.4
2016-Aug-26 14:33N 46°12' W 125°17'1211.8
2016-Aug-26 13:33N 46°23' W 125°17'1212.2
2016-Aug-26 12:33N 46°36' W 125°17'1212.4
2016-Aug-26 11:33N 46°48' W 125°17'1212.2
2016-Aug-26 10:33N 47°00' W 125°17'1212.2
2016-Aug-26 09:33N 47°12' W 125°17'1212.5
2016-Aug-26 08:33N 47°25' W 125°17'1312.9
2016-Aug-26 07:33N 47°38' W 125°17'4912.2
2016-Aug-26 03:30N 48°26' W 125°07'1010.5
2016-Aug-26 02:31N 48°28' W 124°51'1111.5
2016-Aug-26 01:33N 48°25' W 124°35'1312.6
2016-Aug-26 00:33N 48°20' W 124°18'1612.6
2016-Aug-25 23:15N 48°13' W 123°56'912.5
2016-Aug-25 22:33N 48°13' W 123°42'1313.0
2016-Aug-25 21:32N 48°14' W 123°23'1313.3
2016-Aug-25 20:33N 48°13' W 123°03'1512.2
2016-Aug-25 19:16N 48°08' W 122°41'911.3
2016-Aug-25 18:29N 47°60' W 122°36'1011.1
2016-Aug-25 17:33N 47°51' W 122°27'1211.6
2016-Aug-25 16:33N 47°39' W 122°27'3 3.0
2016-Aug-25 15:32N 47°38' W 122°23'0 0.0
2016-Aug-25 14:33N 47°38' W 122°23'0 0.0
2016-Aug-25 13:34N 47°38' W 122°23'0 0.0
2016-Aug-25 12:33N 47°38' W 122°23'0 0.0
2016-Aug-25 11:33N 47°38' W 122°23'0 0.0
2016-Aug-25 10:33N 47°38' W 122°23'0 0.0
2016-Aug-25 09:33N 47°38' W 122°23'0 0.0
2016-Aug-25 08:33N 47°38' W 122°23'0 0.0
2016-Aug-25 07:33N 47°38' W 122°23'0 0.0
2016-Aug-25 06:33N 47°38' W 122°23'0 0.0
2016-Aug-25 04:33N 47°38' W 122°23'0 0.0
2016-Aug-25 03:33N 47°38' W 122°23'0 0.0
2016-Aug-25 02:34N 47°38' W 122°23'0 0.0
2016-Aug-25 01:33N 47°38' W 122°23'0 0.0
2016-Aug-25 00:33N 47°38' W 122°23'0 0.0
2016-Aug-24 23:33N 47°38' W 122°23'0 0.0
2016-Aug-24 22:33N 47°38' W 122°23'0 0.0
2016-Aug-24 21:33N 47°38' W 122°23'0 0.0
2016-Aug-24 20:33N 47°38' W 122°23'0 0.0
2016-Aug-24 19:33N 47°38' W 122°23'0 0.0
2016-Aug-24 18:33N 47°38' W 122°23'0 0.0
2016-Aug-24 17:33N 47°38' W 122°23'0 0.0
2016-Aug-24 16:33N 47°38' W 122°23'0 0.0
2016-Aug-24 15:33N 47°38' W 122°23'0 0.0
2016-Aug-24 14:33N 47°38' W 122°23'0 0.0
2016-Aug-24 13:30N 47°38' W 122°23'0 0.0
2016-Aug-24 12:33N 47°38' W 122°23'0 0.0
2016-Aug-24 11:33N 47°38' W 122°23'0 0.0
2016-Aug-24 10:33N 47°38' W 122°23'0 0.0
2016-Aug-24 09:33N 47°38' W 122°23'0 0.0
2016-Aug-24 08:33N 47°38' W 122°23'0 0.0
2016-Aug-24 07:33N 47°38' W 122°23'0 0.0
2016-Aug-24 06:33N 47°38' W 122°23'0 0.0
2016-Aug-24 04:33N 47°38' W 122°23'0 0.0
2016-Aug-24 03:33N 47°38' W 122°23'0 0.0
2016-Aug-24 02:33N 47°38' W 122°23'0 0.0
2016-Aug-24 01:33N 47°38' W 122°23'0 0.0
2016-Aug-24 00:33N 47°38' W 122°23'0 0.0
2016-Aug-23 23:33N 47°38' W 122°23'0 0.0
2016-Aug-23 22:33N 47°38' W 122°23'0 0.0
2016-Aug-23 21:33N 47°38' W 122°23'0 0.0
2016-Aug-23 20:33N 47°38' W 122°23'0 0.0
2016-Aug-23 19:33N 47°38' W 122°23'0 0.0
2016-Aug-23 18:30N 47°38' W 122°23'0 0.0
2016-Aug-23 17:33N 47°38' W 122°23'0 0.0
2016-Aug-23 16:33N 47°38' W 122°23'0 0.0
2016-Aug-23 15:33N 47°38' W 122°23'0 0.0
2016-Aug-23 14:33N 47°38' W 122°23'0 0.0
2016-Aug-23 13:33N 47°38' W 122°23'0 0.0
2016-Aug-23 12:33N 47°38' W 122°23'0 0.0
2016-Aug-23 11:33N 47°38' W 122°23'0 0.0
2016-Aug-23 10:33N 47°38' W 122°23'0 0.0
2016-Aug-23 09:33N 47°38' W 122°23'0 0.0
2016-Aug-23 08:33N 47°38' W 122°23'0 0.0
2016-Aug-23 07:33N 47°38' W 122°23'0 0.0
2016-Aug-23 06:33N 47°38' W 122°23'0 0.0
2016-Aug-23 05:33N 47°38' W 122°23'  

Dump ship's entire track history